FW5818 Weather Reports


Display with metric or nautical units.
time (UTC)temp
F
wind
direction
speed
MPH
gust
MPH
rain 1hr
in
rain 24hr
in
rain mn
in
humidity
%
barometer
mb
20260502194544 71 252 2.0 10.0 0.00 0.00 0.00 40 1019.1
20260502193044 70 227 2.0 7.0 0.00 0.00 0.00 45 1019.3
20260502191550 68 15 1.0 8.0 0.00 0.00 0.00 47 1019.4
20260502190047 69 204 1.0 10.0 0.00 0.00 0.00 44 1019.5
20260502184546 68 223 2.0 8.0 0.00 0.00 0.00 46 1019.7
20260502183048 70 221 4.0 10.0 0.00 0.00 0.00 45 1019.7
20260502181546 69 0 2.0 8.0 0.00 0.00 0.00 45 1019.9
20260502163059 67 211 3.0 9.0 0.00 0.00 0.00 48 1020.6
20260502161559 66 237 2.0 11.0 0.00 0.00 0.00 48 1020.6
20260502151549 62 228 1.0 6.0 0.00 0.00 0.00 57 1020.7
20260502123109 44 0 0.0 0.0 0.00 0.00 0.00 94 1019.7
20260502121550 43 0 0.0 0.0 0.00 0.00 0.00 92 1019.7
20260502120109 43 0 0.0 1.0 0.00 0.00 0.00 91 1019.4
20260502114545 43 0 0.0 0.0 0.00 0.00 0.00 91 1019.2
20260502113051 43 0 0.0 0.0 0.00 0.00 0.00 91 1019.0
20260502111547 43 0 0.0 0.0 0.00 0.00 0.00 90 1018.9
20260502110050 44 0 0.0 0.0 0.00 0.00 0.00 90 1018.8
20260502104543 44 0 0.0 0.0 0.00 0.00 0.00 90 1018.5
20260502103044 45 0 0.0 0.0 0.00 0.00 0.00 90 1018.4
20260502101547 45 0 0.0 0.0 0.00 0.00 0.00 90 1018.4
20260502070101 51 0 0.0 0.0 0.00 0.00 0.00 88 1018.3
20260502064550 51 0 0.0 0.0 0.00 0.00 0.00 88 1018.4
20260502063050 51 0 0.0 0.0 0.00 0.00 0.00 88 1018.5
20260502061545 51 0 0.0 0.0 0.00 0.00 0.00 88 1018.4
20260502060052 51 0 0.0 0.0 0.00 0.00 0.00 87 1018.6
20260502054546 51 0 0.0 0.0 0.00 0.00 0.00 87 1018.7
20260502053046 51 0 0.0 0.0 0.00 0.00 0.00 86 1018.6
20260502051557 51 0 0.0 0.0 0.00 0.00 0.00 86 1018.7
20260502050051 51 0 0.0 0.0 0.00 0.00 0.00 85 1018.5
20260502044545 52 0 0.0 0.0 0.00 0.00 0.00 84 1018.5
20260502043047 52 0 0.0 0.0 0.00 0.00 0.00 83 1018.4
20260502041547 52 0 0.0 0.0 0.00 0.00 0.00 83 1018.5
20260502040046 53 0 0.0 0.0 0.00 0.00 0.00 82 1018.4
20260502034545 53 0 0.0 0.0 0.00 0.00 0.00 82 1018.3
20260502033046 54 0 0.0 0.0 0.00 0.00 0.00 80 1018.2
20260502031547 54 0 0.0 0.0 0.00 0.00 0.00 79 1018.2
20260502030047 55 0 0.0 0.0 0.00 0.00 0.00 78 1018.3
20260502024546 56 0 0.0 0.0 0.00 0.00 0.00 77 1018.1
20260502023040 56 0 0.0 0.0 0.00 0.00 0.00 76 1018.0
20260502021544 57 0 0.0 0.0 0.00 0.00 0.00 76 1017.8
20260502020044 57 0 0.0 0.0 0.00 0.00 0.00 75 1017.9
20260502014544 58 0 0.0 0.0 0.00 0.00 0.00 74 1017.8
20260502013045 58 0 0.0 0.0 0.00 0.00 0.00 72 1017.9
20260502011543 59 0 0.0 0.0 0.00 0.00 0.00 74 1017.8
20260502010044 59 0 0.0 1.0 0.00 0.00 0.00 73 1017.7
20260502004543 60 0 0.0 1.0 0.00 0.00 0.00 72 1017.4
20260502003051 61 0 0.0 1.0 0.00 0.00 0.00 72 1017.1
20260502001552 62 0 0.0 2.0 0.00 0.00 0.00 70 1016.8
20260502000057 62 0 0.0 1.0 0.00 0.00 0.00 68 1016.2
20260501234545 63 0 0.0 5.0 0.00 0.00 0.00 68 1015.5
20260501233044 64 0 0.0 0.0 0.00 0.00 0.00 69 1015.4
20260501231545 64 0 0.0 1.0 0.00 0.00 0.00 65 1015.2
20260501230046 65 0 0.0 3.0 0.00 0.00 0.00 61 1015.0
20260501224546 66 0 0.0 2.0 0.00 0.00 0.00 61 1014.7
20260501223048 67 0 0.0 2.0 0.00 0.00 0.00 57 1015.0
20260501221553 67 0 1.0 5.0 0.00 0.00 0.00 53 1015.0
20260501220047 68 9 0.0 5.0 0.00 0.00 0.00 53 1014.9
20260501214553 68 5 2.0 5.0 0.00 0.00 0.00 49 1014.6
20260501213045 67 54 1.0 6.0 0.00 0.00 0.00 51 1014.8
20260501211552 66 66 3.0 9.0 0.00 0.00 0.00 51 1014.9
20260501210049 67 17 2.0 11.0 0.00 0.00 0.00 46 1015.1
20260501204559 69 132 3.0 10.0 0.00 0.00 0.00 44 1015.2
20260501203055 69 49 2.0 6.0 0.00 0.00 0.00 50 1015.4
20260501201556 68 125 1.0 9.0 0.00 0.00 0.00 51 1016.0
20260501200053 68 96 3.0 10.0 0.00 0.00 0.00 52 1016.4